N5AET-1 Weather Reports


Display with metric or nautical units.
time (UTC)temp
F
wind
direction
speed
MPH
gust
MPH
rain 1hr
in
rain 24hr
in
rain mn
in
humidity
%
barometer
mb
20260901015516 91 0.0 0.0 0.00 0.00 0.00 43 988.4
20260901014516 92 0.0 0.0 0.00 0.00 0.00 40 988.3
20260901013516 93 0.0 0.0 0.00 0.00 0.00 40 988.3
20260901012536 93 0.0 0.0 0.00 0.00 0.00 39 988.2
20260901011516 94 0.0 0.0 0.00 0.00 0.00 38 988.2
20260901010516 95 0.0 0.0 0.00 0.00 0.00 37 988.1
20260901005516 96 175 0.0 1.0 0.00 0.00 0.00 36 988.1
20260901004516 96 151 0.0 1.0 0.00 0.00 0.00 35 988.0
20260901003516 97 0.0 0.0 0.00 0.00 0.00 34 988.0
20260901002516 98 0.0 0.0 0.00 0.00 0.00 34 988.0
20260901001516 98 77 0.0 1.0 0.00 0.00 0.00 34 988.0
20260901000536 99 160 1.0 2.0 0.00 0.00 0.00 33 988.0
20260831235536 98 164 1.0 2.0 0.00 0.00 0.00 32 987.9
20260831234516 99 133 0.0 1.0 0.00 0.00 0.00 32 988.1
20260831233637 99 90 1.0 4.0 0.00 0.00 0.00 32 988.1
20260831232536 99 87 1.0 4.0 0.00 0.00 0.00 32 988.0
20260831231536 99 108 3.0 8.0 0.00 0.00 0.00 31 988.0
20260831230516 99 115 1.0 3.0 0.00 0.00 0.00 31 988.0
20260831225516 100 130 2.0 4.0 0.00 0.00 0.00 31 988.1
20260831224516 99 140 0.0 3.0 0.00 0.00 0.00 32 988.1
20260831223516 99 0.0 3.0 0.00 0.00 0.00 32 988.2
20260831222516 99 82 2.0 4.0 0.00 0.00 0.00 32 988.3
20260831221516 100 143 0.0 2.0 0.00 0.00 0.00 31 988.4
20260831220516 101 143 1.0 3.0 0.00 0.00 0.00 31 988.4
20260831215557 100 82 7.0 16.0 0.00 0.00 0.00 32 988.3
20260831214516 100 69 1.0 4.0 0.00 0.00 0.00 32 988.6
20260831213556 100 0.0 4.0 0.00 0.00 0.00 31 988.7
20260831212516 99 0.0 0.0 0.00 0.00 0.00 33 988.7
20260831211516 101 144 3.0 5.0 0.00 0.00 0.00 31 988.9
20260831210516 101 160 2.0 6.0 0.00 0.00 0.00 30 988.9
20260831205516 100 80 1.0 4.0 0.00 0.00 0.00 32 989.0
20260831204536 99 0.0 2.0 0.00 0.00 0.00 32 989.3
20260831203536 99 150 2.0 4.0 0.00 0.00 0.00 33 989.5
20260831202536 99 156 1.0 3.0 0.00 0.00 0.00 33 989.6
20260831201516 99 153 0.0 4.0 0.00 0.00 0.00 34 989.7
20260831200516 98 209 0.0 1.0 0.00 0.00 0.00 36 989.8
20260831195516 99 144 1.0 3.0 0.00 0.00 0.00 36 990.0
20260831194516 98 79 0.0 1.0 0.00 0.00 0.00 36 990.1
20260831193516 97 153 1.0 5.0 0.00 0.00 0.00 36 990.3
20260831192516 99 208 0.0 5.0 0.00 0.00 0.00 35 990.3
20260831191536 98 157 1.0 4.0 0.00 0.00 0.00 35 990.3
20260831190516 98 0.0 2.0 0.00 0.00 0.00 35 990.4
20260831185516 98 149 2.0 5.0 0.00 0.00 0.00 34 990.4
20260831184516 98 197 1.0 2.0 0.00 0.00 0.00 35 990.5
20260831183516 99 151 2.0 6.0 0.00 0.00 0.00 33 990.7
20260831182516 99 252 0.0 3.0 0.00 0.00 0.00 35 990.8
20260831181516 99 188 1.0 6.0 0.00 0.00 0.00 34 990.9
20260831180516 99 96 1.0 7.0 0.00 0.00 0.00 38 991.1
20260831175516 98 163 0.0 5.0 0.00 0.00 0.00 38 991.3
20260831174516 98 0.0 2.0 0.00 0.00 0.00 39 991.6
20260831173516 98 197 2.0 4.0 0.00 0.00 0.00 40 991.7
20260831172516 97 187 0.0 4.0 0.00 0.00 0.00 40 991.8
20260831171516 96 190 2.0 4.0 0.00 0.00 0.00 42 991.9
20260831170536 95 180 0.0 3.0 0.00 0.00 0.00 43 992.0
20260831165516 96 181 2.0 4.0 0.00 0.00 0.00 43 992.0
20260831164516 96 162 2.0 4.0 0.00 0.00 0.00 43 991.9
20260831163516 95 144 0.0 1.0 0.00 0.00 0.00 44 992.0
20260831162516 95 163 1.0 5.0 0.00 0.00 0.00 45 992.0
20260831161516 95 148 1.0 2.0 0.00 0.00 0.00 45 992.1
20260831160536 94 159 1.0 3.0 0.00 0.00 0.00 46 992.1
20260831155516 93 227 0.0 2.0 0.00 0.00 0.00 47 992.0
20260831154516 92 238 1.0 6.0 0.00 0.00 0.00 46 992.0
20260831153516 92 249 2.0 7.0 0.00 0.00 0.00 45 992.1
20260831152516 91 174 2.0 5.0 0.00 0.00 0.00 46 992.0
20260831151516 91 227 0.0 1.0 0.00 0.00 0.00 50 992.0
20260831150536 90 0.0 0.0 0.00 0.00 0.00 52 991.9
20260831145556 89 0.0 3.0 0.00 0.00 0.00 53 991.9
20260831144516 89 0.0 0.0 0.00 0.00 0.00 56 991.9
20260831143516 88 126 1.0 2.0 0.00 0.00 0.00 57 991.8
20260831142516 88 245 0.0 2.0 0.00 0.00 0.00 57 991.8
20260831141536 87 253 4.0 9.0 0.00 0.00 0.00 58 991.7
20260831140516 86 226 1.0 5.0 0.00 0.00 0.00 60 991.8
20260831135516 85 254 2.0 8.0 0.00 0.00 0.00 62 991.7
20260831134516 84 0.0 0.0 0.00 0.00 0.00 65 991.6
20260831133517 83 147 1.0 2.0 0.00 0.00 0.00 67 991.5
20260831132516 82 171 0.0 1.0 0.00 0.00 0.00 68 991.4
20260831131516 82 0.0 0.0 0.00 0.00 0.00 70 991.3
20260831130516 82 143 0.0 1.0 0.00 0.00 0.00 69 991.2
20260831125516 82 0.0 0.0 0.00 0.00 0.00 70 991.1
20260831124536 82 0.0 0.0 0.00 0.00 0.00 70 990.9
20260831123516 81 0.0 0.0 0.00 0.00 0.00 73 990.8
20260831122516 80 0.0 0.0 0.00 0.00 0.00 75 990.6
20260831121516 79 0.0 0.0 0.00 0.00 0.00 76 990.5
20260831120516 78 0.0 0.0 0.00 0.00 0.00 77 990.3
20260831115516 79 0.0 0.0 0.00 0.00 0.00 76 990.2
20260831114536 79 0.0 0.0 0.00 0.00 0.00 76 990.2
20260831113516 79 0.0 0.0 0.00 0.00 0.00 76 990.0
20260831112516 79 0.0 0.0 0.00 0.00 0.00 75 989.9
20260831111536 79 0.0 0.0 0.00 0.00 0.00 74 989.8
20260831110536 80 0.0 0.0 0.00 0.00 0.00 73 989.8
20260831105516 80 0.0 0.0 0.00 0.00 0.00 72 989.7
20260831104516 80 0.0 0.0 0.00 0.00 0.00 70 989.7
20260831102516 82 0.0 0.0 0.00 0.00 0.00 66 989.7
20260831101536 82 0.0 0.0 0.00 0.00 0.00 65 989.7
20260831100516 83 0.0 0.0 0.00 0.00 0.00 62 989.7
20260831095516 84 0.0 0.0 0.00 0.00 0.00 63 989.6
20260831094516 84 0.0 0.0 0.00 0.00 0.00 61 989.5
20260831093516 85 0.0 0.0 0.00 0.00 0.00 60 989.5
20260831092516 85 249 4.0 8.0 0.00 0.00 0.00 60 989.4
20260831091556 85 219 1.0 3.0 0.00 0.00 0.00 59 989.3
20260831090536 85 0.0 0.0 0.00 0.00 0.00 57 989.2
20260831085516 86 247 2.0 3.0 0.00 0.00 0.00 56 989.2
20260831084516 86 252 0.0 2.0 0.00 0.00 0.00 55 989.2
20260831083516 86 0.0 2.0 0.00 0.00 0.00 54 989.1
20260831082536 86 236 0.0 2.0 0.00 0.00 0.00 54 989.0
20260831081516 86 191 1.0 6.0 0.00 0.00 0.00 54 989.1
20260831080516 86 226 1.0 5.0 0.00 0.00 0.00 52 989.1
20260831075516 87 243 1.0 3.0 0.00 0.00 0.00 52 989.0
20260831074516 87 207 0.0 1.0 0.00 0.00 0.00 52 988.9
20260831073516 87 185 1.0 4.0 0.00 0.00 0.00 51 988.9
20260831072516 87 0.0 0.0 0.00 0.00 0.00 50 988.9
20260831071516 87 194 0.0 2.0 0.00 0.00 0.00 50 988.8
20260831070516 87 174 0.0 1.0 0.00 0.00 0.00 50 988.8
20260831065516 87 201 0.0 1.0 0.00 0.00 0.00 51 988.9
20260831064516 87 0.0 1.0 0.00 0.00 0.00 51 989.0
20260831063516 87 0.0 0.0 0.00 0.00 0.00 51 989.0
20260831062516 87 0.0 0.0 0.00 0.00 0.00 51 988.9
20260831061516 87 0.0 0.0 0.00 0.00 0.00 51 988.9
20260831060516 88 0.0 0.0 0.00 0.00 0.00 51 988.9
20260831055516 88 0.0 0.0 0.00 0.00 0.00 50 989.0
20260831054516 88 0.0 1.0 0.00 0.00 0.00 50 989.0
20260831053516 88 0.0 1.0 0.00 0.00 0.00 50 989.0
20260831052536 88 0.0 1.0 0.00 0.00 0.00 50 989.0
20260831051516 88 0.0 0.0 0.00 0.00 0.00 49 988.9
20260831050536 88 0.0 1.0 0.00 0.00 0.00 49 988.8
20260831045516 87 0.0 0.0 0.00 0.00 0.00 49 988.7
20260831044516 87 0.0 0.0 0.00 0.00 0.00 50 988.8
20260831043516 86 0.0 0.0 0.00 0.00 0.00 51 988.7
20260831042517 86 0.0 0.0 0.00 0.00 0.00 51 988.8
20260831041537 86 0.0 0.0 0.00 0.00 0.00 52 988.7
20260831040516 85 0.0 0.0 0.00 0.00 0.00 52 988.8
20260831035516 85 0.0 0.0 0.00 0.00 0.00 52 988.7
20260831034516 85 0.0 0.0 0.00 0.00 0.00 53 988.6
20260831033516 85 0.0 0.0 0.00 0.00 0.00 52 988.5
20260831032517 86 0.0 0.0 0.00 0.00 0.00 51 988.5
20260831031516 86 0.0 0.0 0.00 0.00 0.00 51 988.6
20260831030517 87 0.0 0.0 0.00 0.00 0.00 50 988.5
20260831025516 87 0.0 0.0 0.00 0.00 0.00 50 988.5
20260831024517 88 0.0 0.0 0.00 0.00 0.00 49 988.3
20260831023517 88 0.0 0.0 0.00 0.00 0.00 48 988.2
20260831022556 89 0.0 0.0 0.00 0.00 0.00 47 988.0
20260831021536 89 0.0 0.0 0.00 0.00 0.00 46 988.0
20260831020516 90 0.0 0.0 0.00 0.00 0.00 45 987.8